Miscellaneous Local Product
Issued by NWS North Platte, NE

Home | Current Version | Previous Version | Text Only | Print | Product List | Glossary On
Versions: 1 2 3 4 5 6 7 8 9 10 11 12 13 14 15 16 17 18 19 20 21 22 23 24 25 26 27 28 29 30 31 32 33 34 35 36 37 38 39 40 41 42 43 44 45 46 47 48 49 50
632
AXUS43 KLBF 240810
MISLBF


WESTERN AND NORTH CENTRAL NEBRASKA HOURLY WEATHER ROUNDUP
NATIONAL WEATHER SERVICE NORTH PLATTE NE
200 AM CST FRI FEB 24 2017

NOTE: "FAIR" INDICATES FEW OR NO CLOUDS BELOW 12,000 FEET WITH NO
SIGNIFICANT WEATHER AND/OR OBSTRUCTIONS TO VISIBILITY.

NOTE: STATIONS NOT REPORTING VARIABLES SUCH AS SKY/WEATHER OR
PRESSURE ARE PROVIDED BY RAWS AND APRS NETWORKS AND ARE NOT UNDER
NATIONAL WEATHER SERVICE QUALITY CONTROL.

...OBSERVATIONS IN AND NEAR THE EASTERN PANHANDLE OF NEBRASKA...

CITY           SKY/WX    TMP DP  RH WIND       PRES   REMARKS
PINE RIDGE     LGT SNOW  22  20  92 N7        29.95S FOG     WCI  13
CHADRON        LGT SNOW  22  19  89 NE14      29.97S FOG     WCI   9
ALLIANCE       LGT SNOW  20  17  88 N15       29.88R FOG     WCI   6
SIDNEY         LGT SNOW  20  16  84 N15       29.85R FOG     WCI   6
CRESCENT LAKE    N/A     20  19  95 N15G23      N/A  WCI   6
$$

...OBSERVATIONS IN NORTHERN NEBRASKA AND FAR SOUTHERN SOUTH DAKOTA...

CITY           SKY/WX    TMP DP  RH WIND       PRES   REMARKS
WINNER         FLURRIES  26  22  84 N17       29.94S WCI  13
VALENTINE      CLOUDY    24  20  84 N20G29    29.90R FOG     WCI  10
THEDFORD       LGT SNOW  23  21  92 N20G28    29.84R WCI   9
AINSWORTH      CLOUDY    23  22  97 N25G35    29.87R WCI   7
O`NEILL        CLOUDY    25  24  96 N21G31    29.82S WCI  11
ORD            LGT SNOW  25  21  85 N20G28    29.76S VSB 1   WCI  11
BROKEN BOW     FOG       24  22  91 N25G36    29.76S VSB 3/4 WCI   8
VALENTINE NWR    N/A     21  19  93 N15G26      N/A  WCI   8
BUTTE            N/A     23  22  94 N20G30      N/A  WCI   8
HALSEY           N/A     22  20  93 N10G21      N/A  WCI  11
CHAMBERS         N/A     24  23  95 N7G15       N/A  WCI  16
EWING            N/A     25  24  95 N8G20       N/A  WCI  16
$$

...OBSERVATIONS IN SOUTHWEST NEBRASKA AND FAR NORTHEAST COLORADO...

CITY           SKY/WX    TMP DP  RH WIND       PRES   REMARKS
HOLYOKE        LGT SNOW  25  21  86 N12G17    29.84S WCI  14
IMPERIAL       LGT SNOW  23  20  88 N15G24    29.83R FOG     WCI  10
OGALLALA       LGT SNOW  25  22  88 N18       29.84S WCI  11
NORTH PLATTE   LGT SNOW  24  19  81 N21G26    29.80S WCI   9
MCCOOK         CLOUDY    25  22  88 N18       29.79R WCI  11
LEXINGTON      CLOUDY    26  22  87 N20G28    29.77S WCI  12
STAPLETON        N/A     21  19  93 NE3G15      N/A
GOTHENBURG       N/A     25  22  87 N12         N/A  WCI  14
CALLAWAY         N/A     22  20  93 N13         N/A  WCI  10
$$

...OBSERVATIONS IN CENTRAL LINCOLN COUNTY AREA...

CITY           SKY/WX    TMP DP  RH WIND       PRES   REMARKS
N.P. AIRPORT   LGT SNOW  24  19  81 N21G26    29.80S WCI   9
N.P. DOWNTOWN    N/A     22  20  90 N9G20       N/A  WCI  12
N.P. SOUTHEAST   N/A     22  20  90 N8G17       N/A  WCI  13
N.P. HILLCREST   N/A     22  20  92 N23G33      N/A  WCI   6
$$

...SOME OBSERVATIONS FROM AROUND THE REGION...

CITY           SKY/WX    TMP DP  RH WIND       PRES   REMARKS
LARAMIE        CLOUDY     5   2  87 CALM      29.73S
CHEYENNE       LGT SNOW  14  10  84 N10       29.80S FOG     WCI   1
DENVER         FLURRIES  18  14  84 N9        29.84S WCI   7
AKRON          LGT SNOW  18  15  88 N10       29.82S FOG     WCI   6
SCOTTSBLUFF    LGT SNOW  22  17  81 N9        29.90S WCI  12
RAPID CITY     FLURRIES  24  21  88 N9        29.99S WCI  14
BISMARCK       CLEAR     16  11  80 W3        30.16S
PIERRE         CLOUDY    26  19  74 N21G28    30.00R WCI  12
SIOUX FALLS    CLOUDY    27  24  89 N20G28    29.83R WCI  13
OMAHA          CLOUDY    34  29  82 N18G29    29.62R WCI  23
GRAND ISLAND   FRZ RAIN  27  27 100 N20G26    29.72R FOG     WCI  13
KANSAS CITY    PTCLDY    42  39  89 NW8       29.46F
WICHITA        CLOUDY    39  33  79 NW22G28   29.66R WCI  29
OKLAHOMA CITY  CLOUDY    44  37  76 N23G32    29.68R
DALLAS         PTCLDY    68  59  73 SW13      29.58R
AMARILLO       MOCLDY    33  28  81 N17       29.78R WCI  22
DODGE CITY     CLOUDY    30  22  72 NW25G36   29.76R WCI  16
HAYS           CLOUDY    32  26  78 NW20G26   29.73R WCI  20
GOODLAND       CLOUDY    23  20  88 NW21      29.79R WCI   8
$$




USA.gov is the U.S. government's official web portal to all federal, state and local government web resources and services.